[[{"header":{"parameterUnit":"m.s-1","parameterCategory":1,"la1":30.2991,"la2":30.254,"lo1":-89.0895,"lo2":-89.0444,"dy":0.0017,"dx":0.0017,"nx":28,"ny":28,"refTime":"2023-09-09T03:00:00:Z","depth":0,"parameterNumber":2,"parameterNumberName":"U-component_of_WINDS"},"data":[0,0,0,0,0,0,0,0,0,0,0,0,0,0,0,0,0,0,0,0,0,0,0,0,0,0,0,0,0,0,0,0,0,0,0,0,0,0,0,0,0,0,0,0,0,0,0,0,0,0,0,0,0,0,0,0,0,0,0.2114,0.2115,0,0.2144,0.2145,0.2145,0.2174,0.2174,0.2174,0.2175,0.2206,0.2206,0.2207,0,0,0,0,0,0,0,0,0,0,0,0,0,0.2082,0.2083,0.2114,0.2115,0.2115,0.2144,0.2145,0.2145,0.2174,0.2174,0.2175,0.2175,0.2206,0.2206,0.2207,0,0,0,0,0,0,0,0,0,0,0,0,0,0.2103,0.2083,0.2114,0.2133,0.2135,0.2144,0.2145,0.2145,0.2174,0.2174,0.2175,0.2175,0.2206,0.2206,0.2207,0.2201,0,0,0.2209,0.221,0,0,0,0,0,0,0,0,0.2102,0.2104,0.213,0.2132,0.2134,0.2156,0.2145,0.2164,0.2173,0.2159,0.2175,0.2175,0.2189,0.2191,0.2196,0.2202,0.2204,0.2209,0.221,0.221,0.221,0,0,0,0,0,0,0,0.21,0.2103,0.2126,0.213,0.2132,0.214,0.2143,0.2149,0.217,0.216,0.2162,0.2165,0.219,0.2195,0.2196,0.2204,0.2209,0.221,0.221,0.2211,0.2208,0.2208,0,0,0,0,0,0,0.2096,0.2101,0.2125,0.2127,0.2119,0.214,0.2144,0.2148,0.217,0.2174,0.2165,0.2167,0.2193,0.2196,0.2198,0.2192,0.221,0.2211,0.2211,0.2209,0.2208,0.2207,0,0,0,0,0,0,0.2095,0.2098,0.2124,0.2115,0.2119,0.214,0.2145,0.2149,0.2153,0.2174,0.2178,0.2166,0.2194,0.2197,0.22,0.2193,0.2211,0.2212,0.2209,0.2208,0.2208,0.218,0,0,0,0,0,0,0.2094,0.2097,0.2095,0.2115,0.2119,0.2125,0.2144,0.2149,0.2154,0.2157,0.2176,0.2179,0.2194,0.2199,0.2201,0.2195,0.2212,0.221,0.2209,0.2208,0.2182,0.2179,0.2176,0,0,0,0,0,0.2093,0.2086,0.2094,0.2097,0.2116,0.2125,0.2128,0.2145,0.2154,0.2152,0.2165,0.2179,0.2194,0.2199,0.2201,0.2195,0.221,0.2209,0.2208,0.2183,0.2179,0.2176,0,0,0,0,0,0,0.2064,0.2089,0.2099,0.2098,0.2109,0.213,0.2127,0.214,0.2149,0.2151,0.2172,0.2176,0.2177,0.2187,0.2192,0.2191,0.2204,0.2203,0.2184,0.2181,0.2178,0.2175,0.2213,0,0,0,0,0,0.2058,0.2063,0.2084,0.2081,0.2086,0.2106,0.211,0.2123,0.2135,0.214,0.2154,0.2166,0.2174,0.2178,0.2186,0.2184,0.2189,0.2181,0.2178,0.2176,0.2175,0.2175,0.2172,0.2204,0.2204,0.2204,0,0,0.2045,0.2059,0.206,0.2076,0.2086,0.2091,0.211,0.2114,0.2117,0.2141,0.2145,0.2155,0.217,0.2171,0.2172,0.2179,0.2167,0.2174,0.2172,0.2172,0.2173,0.217,0.2167,0.2203,0.2203,0.2203,0,0,0.2023,0.2034,0.2033,0.2043,0.2059,0.2072,0.2072,0.2091,0.2099,0.2103,0.2121,0.2126,0.2138,0.2148,0.2155,0.2138,0.2151,0.214,0.2125,0.2124,0.2122,0.212,0.2113,0.2111,0.2139,0.2139,0.2139,0,0.2005,0.2012,0.2031,0.2034,0.204,0.2062,0.2062,0.2071,0.2088,0.2092,0.21,0.2116,0.2128,0.2131,0.2127,0.2132,0.2133,0.2138,0.2121,0.2119,0.2117,0.2111,0.2109,0.2138,0.2138,0.2138,0.2138,0,0.1989,0.1994,0.1991,0.2007,0.2014,0.2015,0.2034,0.2038,0.2051,0.2063,0.2068,0.2083,0.2094,0.2096,0.2108,0.2101,0.2105,0.2117,0.213,0.2112,0.2107,0.2105,0.2136,0.2136,0.2137,0.2137,0,0,0.1949,0.1976,0.1975,0.1982,0.2002,0.2006,0.2009,0.202,0.2023,0.2035,0.2037,0.2048,0.2059,0.2066,0.208,0.208,0.2065,0.2091,0.2092,0.2085,0.2059,0.2049,0.2047,0.2074,0.2074,0.2074,0.2057,0,0.193,0.1935,0.1953,0.1953,0.1958,0.1979,0.1982,0.1994,0.2006,0.2012,0.2026,0.2033,0.2047,0.2052,0.2052,0.2067,0.206,0.2068,0.2077,0.2077,0.2072,0.2044,0.2034,0.2018,0.2056,0.2055,0.2055,0,0.1908,0.1918,0.1918,0.1938,0.1941,0.1942,0.1954,0.196,0.1975,0.1984,0.1993,0.2008,0.2012,0.2026,0.2032,0.2037,0.2042,0.205,0.205,0.205,0.2064,0.2043,0.2013,0.201,0.2052,0.2052,0.2053,0,0.1878,0.1892,0.1894,0.19,0.1923,0.1924,0.1933,0.1949,0.1955,0.1966,0.197,0.1981,0.1987,0.1996,0.2014,0.2022,0.2018,0.2033,0.2026,0.2025,0.2023,0.2023,0.1992,0.2027,0.2027,0.2027,0.2027,0,0.1854,0.1854,0.1881,0.1882,0.1882,0.1903,0.1903,0.1915,0.1928,0.1933,0.1952,0.1956,0.198,0.1987,0.2001,0.2004,0.2007,0.2014,0.2018,0.2012,0.2011,0.2015,0.2016,0.2027,0.2027,0.2027,0.2027,0,0.182,0.1839,0.1842,0.1864,0.187,0.1869,0.1887,0.189,0.1904,0.1909,0.1911,0.1933,0.1942,0.1961,0.1975,0.1985,0.1984,0.1991,0.1979,0.1981,0.1972,0.1973,0.1943,0.194,0.1977,0.1977,0.1977,0,0.1803,0.1803,0.1825,0.183,0.1838,0.1845,0.1851,0.1872,0.1878,0.1895,0.1896,0.1906,0.1915,0.1929,0.1946,0.1957,0.1964,0.1953,0.1965,0.196,0.1963,0.1962,0.1962,0.1949,0.1949,0.1948,0.1948,0,0.1772,0.1781,0.1789,0.18,0.1807,0.1818,0.1829,0.1831,0.1855,0.1861,0.187,0.1877,0.1892,0.1902,0.1916,0.1926,0.1941,0.1944,0.1943,0.1936,0.1929,0.1932,0.197,0.1944,0.1945,0.1945,0.1945,0.1945,0.1745,0.1746,0.1762,0.1771,0.1782,0.1792,0.1795,0.181,0.1817,0.1831,0.1843,0.1851,0.1867,0.1887,0.1897,0.1903,0.1911,0.1909,0.1909,0.1908,0.1905,0.1929,0.1906,0.1906,0.1906,0.1907,0.1907,0,0.1714,0.1725,0.1733,0.1748,0.1755,0.1769,0.1783,0.1787,0.1794,0.1807,0.1816,0.1827,0.1837,0.1856,0.1868,0.187,0.1877,0.1872,0.1872,0.1874,0.1898,0.1897,0.1866,0.1866,0.1866,0.1866,0.1866,0.1866,0.1698,0.1701,0.1712,0.1721,0.1732,0.174,0.1747,0.1756,0.1767,0.1778,0.1787,0.1799,0.1815,0.1828,0.1838,0.1843,0.1846,0.1839,0.1847,0.1868,0.1872,0.1876,0.1875,0.184,0.184,0.1822,0.1822,0.1822]},{"header":{"parameterUnit":"m.s-1","parameterCategory":1,"la1":30.2991,"la2":30.254,"lo1":-89.0895,"lo2":-89.0444,"dy":0.0017,"dx":0.0017,"nx":28,"ny":28,"refTime":"2023-09-09T03:00:00:Z","depth":0,"parameterNumber":3,"parameterNumberName":"V-component_of_WINDS"},"data":[0,0,0,0,0,0,0,0,0,0,0,0,0,0,0,0,0,0,0,0,0,0,0,0,0,0,0,0,0,0,0,0,0,0,0,0,0,0,0,0,0,0,0,0,0,0,0,0,0,0,0,0,0,0,0,0,0,0,-1.4434,-1.4434,0,-1.4447,-1.4448,-1.4448,-1.4475,-1.4476,-1.4476,-1.4477,-1.4488,-1.4488,-1.4488,0,0,0,0,0,0,0,0,0,0,0,0,0,-1.4433,-1.4432,-1.4434,-1.4434,-1.4435,-1.4447,-1.4448,-1.4448,-1.4475,-1.4476,-1.4477,-1.4477,-1.4488,-1.4488,-1.4488,0,0,0,0,0,0,0,0,0,0,0,0,0,-1.4438,-1.4432,-1.4434,-1.445,-1.4451,-1.4447,-1.4448,-1.4448,-1.4475,-1.4476,-1.4477,-1.4478,-1.4488,-1.4488,-1.4488,-1.4469,0,0,-1.4487,-1.4486,0,0,0,0,0,0,0,0,-1.4438,-1.4438,-1.4447,-1.4449,-1.4451,-1.4461,-1.4451,-1.4455,-1.4475,-1.4466,-1.4477,-1.4478,-1.4478,-1.4479,-1.4479,-1.4469,-1.447,-1.4487,-1.4486,-1.4486,-1.4486,0,0,0,0,0,0,0,-1.4437,-1.4438,-1.4439,-1.4448,-1.4449,-1.4456,-1.4458,-1.4452,-1.4467,-1.4467,-1.4469,-1.447,-1.4479,-1.4479,-1.448,-1.447,-1.4487,-1.4486,-1.4486,-1.4486,-1.4448,-1.4447,0,0,0,0,0,0,-1.4435,-1.4437,-1.4439,-1.444,-1.4446,-1.4456,-1.4457,-1.4456,-1.4467,-1.447,-1.4469,-1.4471,-1.448,-1.448,-1.448,-1.4461,-1.4486,-1.4486,-1.4486,-1.4449,-1.4448,-1.4447,0,0,0,0,0,0,-1.4435,-1.4435,-1.4438,-1.4439,-1.444,-1.4455,-1.4453,-1.4456,-1.4457,-1.4469,-1.4472,-1.4467,-1.448,-1.4481,-1.4472,-1.4462,-1.4486,-1.4485,-1.445,-1.4449,-1.4448,-1.4421,0,0,0,0,0,0,-1.4435,-1.4435,-1.4427,-1.4439,-1.444,-1.443,-1.4453,-1.4456,-1.4456,-1.4459,-1.4468,-1.447,-1.4481,-1.4473,-1.4472,-1.4462,-1.4485,-1.4451,-1.4449,-1.4448,-1.4423,-1.4419,-1.4416,0,0,0,0,0,-1.4434,-1.4418,-1.4427,-1.4427,-1.4431,-1.443,-1.443,-1.4444,-1.4455,-1.4449,-1.4457,-1.447,-1.4463,-1.4471,-1.4471,-1.446,-1.4452,-1.445,-1.4448,-1.4425,-1.442,-1.4416,0,0,0,0,0,0,-1.4403,-1.442,-1.443,-1.4417,-1.4422,-1.4434,-1.4426,-1.4438,-1.4439,-1.4441,-1.4458,-1.446,-1.4449,-1.4454,-1.4463,-1.4444,-1.4459,-1.4457,-1.4442,-1.4438,-1.4434,-1.4434,-1.4485,0,0,0,0,0,-1.4395,-1.4393,-1.4407,-1.4394,-1.4397,-1.4411,-1.441,-1.4421,-1.4426,-1.4428,-1.4436,-1.444,-1.444,-1.4439,-1.4438,-1.4424,-1.4427,-1.4416,-1.4413,-1.441,-1.4408,-1.4403,-1.44,-1.4441,-1.4441,-1.4441,0,0,-1.4378,-1.4387,-1.4384,-1.4389,-1.4394,-1.4391,-1.4412,-1.4408,-1.4406,-1.4427,-1.4421,-1.4427,-1.4433,-1.4422,-1.4418,-1.4426,-1.4398,-1.4408,-1.4405,-1.4405,-1.4401,-1.4397,-1.4394,-1.444,-1.444,-1.444,0,0,-1.4346,-1.4352,-1.4343,-1.4349,-1.4357,-1.4367,-1.4365,-1.4376,-1.4381,-1.4375,-1.4392,-1.439,-1.4387,-1.4392,-1.4394,-1.4367,-1.4379,-1.4366,-1.4348,-1.4343,-1.434,-1.4337,-1.4329,-1.4326,-1.4364,-1.4364,-1.4364,0,-1.4324,-1.4321,-1.4337,-1.4333,-1.4335,-1.4355,-1.4348,-1.4352,-1.4359,-1.436,-1.4369,-1.4368,-1.4374,-1.4366,-1.4359,-1.4359,-1.4359,-1.4365,-1.4339,-1.4336,-1.4334,-1.4327,-1.4323,-1.4363,-1.4363,-1.4363,-1.4363,0,-1.4294,-1.4292,-1.4284,-1.4293,-1.4294,-1.4287,-1.4303,-1.4302,-1.4313,-1.4322,-1.4317,-1.4325,-1.4328,-1.4326,-1.4335,-1.432,-1.4325,-1.4336,-1.4352,-1.4328,-1.4322,-1.4319,-1.436,-1.4361,-1.4361,-1.4362,0,0,-1.4242,-1.4262,-1.4258,-1.4264,-1.4276,-1.4274,-1.427,-1.4274,-1.4274,-1.4278,-1.4276,-1.4275,-1.4286,-1.4288,-1.4299,-1.4294,-1.4275,-1.4306,-1.4307,-1.4302,-1.4261,-1.4254,-1.425,-1.4283,-1.4283,-1.4282,-1.4261,0,-1.4214,-1.4208,-1.4223,-1.4214,-1.4213,-1.4234,-1.423,-1.4237,-1.4246,-1.4247,-1.4256,-1.4256,-1.427,-1.4272,-1.4268,-1.4278,-1.4267,-1.428,-1.4282,-1.4282,-1.4281,-1.4246,-1.4238,-1.4218,-1.4258,-1.4258,-1.4258,0,-1.418,-1.4185,-1.4176,-1.4191,-1.4191,-1.4188,-1.4195,-1.4195,-1.4204,-1.4211,-1.4214,-1.4227,-1.4225,-1.4239,-1.4236,-1.4245,-1.4246,-1.4251,-1.4251,-1.4253,-1.4269,-1.4248,-1.4211,-1.4209,-1.4253,-1.4254,-1.4254,0,-1.4146,-1.415,-1.4146,-1.415,-1.4166,-1.4164,-1.4171,-1.418,-1.4183,-1.4188,-1.419,-1.4195,-1.4197,-1.4201,-1.4215,-1.4224,-1.4211,-1.4226,-1.4218,-1.4217,-1.4214,-1.4215,-1.4178,-1.4213,-1.4213,-1.4213,-1.4213,0,-1.4113,-1.4107,-1.4131,-1.4129,-1.4124,-1.4142,-1.4135,-1.4144,-1.4153,-1.4153,-1.417,-1.417,-1.4188,-1.419,-1.42,-1.4198,-1.4198,-1.4204,-1.4208,-1.4204,-1.4203,-1.4206,-1.4208,-1.4212,-1.4212,-1.4213,-1.4213,0,-1.4074,-1.409,-1.4087,-1.4104,-1.4109,-1.4104,-1.4119,-1.4117,-1.4128,-1.4128,-1.4129,-1.4146,-1.4149,-1.4163,-1.4169,-1.4177,-1.4171,-1.4176,-1.4168,-1.417,-1.4162,-1.4163,-1.4127,-1.4124,-1.4159,-1.4158,-1.4158,0,-1.4053,-1.405,-1.4067,-1.4069,-1.4076,-1.4078,-1.4082,-1.4099,-1.4102,-1.4114,-1.4111,-1.4116,-1.4121,-1.4125,-1.4138,-1.4143,-1.415,-1.4137,-1.415,-1.4147,-1.4152,-1.4152,-1.4153,-1.4134,-1.4133,-1.4133,-1.4133,0,-1.4015,-1.4024,-1.4029,-1.4037,-1.4041,-1.4048,-1.4055,-1.4056,-1.4076,-1.4078,-1.4083,-1.4086,-1.4094,-1.4099,-1.4107,-1.4114,-1.4127,-1.4128,-1.4127,-1.4123,-1.412,-1.4124,-1.4162,-1.4129,-1.4129,-1.413,-1.413,-1.413,-1.3986,-1.3985,-1.3998,-1.4003,-1.4011,-1.4019,-1.402,-1.4031,-1.4036,-1.4044,-1.4054,-1.4058,-1.4069,-1.4081,-1.4087,-1.409,-1.4097,-1.4095,-1.4094,-1.4094,-1.4093,-1.4119,-1.4091,-1.4092,-1.4092,-1.4092,-1.4092,0,-1.3951,-1.3961,-1.3965,-1.3977,-1.3982,-1.3995,-1.4005,-1.4008,-1.4011,-1.402,-1.4026,-1.4032,-1.4038,-1.4051,-1.4058,-1.4058,-1.4065,-1.406,-1.4061,-1.4062,-1.4085,-1.4086,-1.4055,-1.4055,-1.4055,-1.4055,-1.4055,-1.4055,-1.3933,-1.3933,-1.3943,-1.3948,-1.3957,-1.3962,-1.3967,-1.3974,-1.3983,-1.3989,-1.3995,-1.4004,-1.4016,-1.4024,-1.403,-1.4034,-1.4037,-1.403,-1.4036,-1.4057,-1.406,-1.4064,-1.4065,-1.403,-1.403,-1.4014,-1.4013,-1.4013]}]]